Atqasuk Edward Burnell Sr Mem, AK

7:31 PM AKST on December 13, 2019 (GMT -0900)
Atqasuk Edward Burnell Sr Mem

Weather History for PATQ - September, 2019

Change the Weather History Date:

Monday, September 30, 2019

  Actual Average (PABR) Record (PABR)
Temperature  
Mean Temperature 37 °F -  
Max Temperature 39 °F 27 °F 48 °F (2016)
Min Temperature 35 °F 20 °F 5 °F (1975)
Degree Days  
Heating Degree Days 28    
Moisture  
Dew Point 37 °F    
Average Humidity 98    
Maximum Humidity 100    
Minimum Humidity 93    
Precipitation  
Precipitation 0.01 in - - ()
Sea Level Pressure  
Sea Level Pressure 29.46 in    
Wind  
Wind Speed 13 mph (SW)    
Max Wind Speed 23 mph    
Max Gust Speed 29 mph    
Visibility 7 miles    
Events Rain    
Averages and records for this station are not official NWS values.
T = Trace of Precipitation, MM = Missing Value Source: NWS Daily Summary

Daily Weather History Graph

Daily Weather History Graph

Search for Another Location

Airport or City:

Astronomy

Sep. 30, 2019 Rise Set
Actual Time 8:42 AM AKDT 7:55 PM AKDT
Civil Twilight 7:40 AM AKDT 8:56 PM AKDT
Nautical Twilight 6:24 AM AKDT 10:11 PM AKDT
Astronomical Twilight 4:52 AM AKDT 11:41 PM AKDT
Moon 12:05 PM AKDT (9/30) 8:17 PM AKDT (9/30)
Length of Visible Light 13h 16m
Length of Day
11h 12m
Waxing Crescent, 6% of the Moon is Illuminated
Sep 30
Waxing Crescent
Oct 5
First Quarter
Oct 13
Full
Oct 21
Last Quarter
Oct 27
New

Hourly Weather History & Observations

Time (AKDT) Temp. Windchill Dew Point Humidity Pressure Visibility Wind Dir Wind Speed Gust Speed Precip Events Conditions
12:56 AM 37.0 °F 29.3 °F 36.0 °F 96% 29.43 in 10.0 mi SSE 11.5 mph - 0.00 in   Overcast
1:56 AM 36.0 °F 29.0 °F 34.0 °F 93% 29.43 in 10.0 mi South 9.2 mph - 0.00 in   Overcast
3:46 AM 35.6 °F 29.9 °F 35.6 °F 100% 29.41 in 10.0 mi South 6.9 mph - 0.00 in   Overcast
4:56 AM 36.0 °F 29.0 °F 35.1 °F 97% 29.43 in 10.0 mi SSW 9.2 mph - 0.01 in   Overcast
5:56 AM 36.0 °F 29.6 °F 36.0 °F 100% 29.44 in 10.0 mi SSW 8.1 mph - 0.00 in   Overcast
6:42 AM 35.6 °F 29.2 °F 35.6 °F 100% 29.41 in 10.0 mi SSW 8.1 mph - 0.01 in Rain Light Rain
6:49 AM 35.6 °F 29.2 °F 35.6 °F 100% 29.41 in 10.0 mi South 8.1 mph - 0.01 in Rain Light Rain
7:53 AM 37.4 °F 30.8 °F 35.6 °F 93% 29.41 in 10.0 mi South 9.2 mph - 0.01 in   Overcast
8:26 AM 35.6 °F 27.5 °F 35.6 °F 100% 29.41 in 10.0 mi South 11.5 mph - 0.00 in   Overcast
8:56 AM 36.0 °F 28.5 °F 36.0 °F 100% 29.43 in 10.0 mi South 10.4 mph - 0.00 in   Overcast
9:20 AM 35.6 °F 27.5 °F 35.6 °F 100% 29.41 in 4.0 mi South 11.5 mph - N/A   Overcast
10:25 AM 37.4 °F 28.5 °F 37.4 °F 100% 29.41 in 10.0 mi South 15.0 mph - N/A   Overcast
10:52 AM 37.4 °F 29.3 °F 37.4 °F 100% 29.40 in 1.8 mi South 12.7 mph - N/A   Overcast
11:15 AM 37.4 °F 28.9 °F 37.4 °F 100% 29.40 in 2.0 mi South 13.8 mph - N/A   Overcast
11:24 AM 37.4 °F 28.5 °F 37.4 °F 100% 29.40 in 3.0 mi SSW 15.0 mph - N/A   Overcast
11:35 AM 37.4 °F 28.9 °F 37.4 °F 100% 29.40 in 1.8 mi SSW 13.8 mph - N/A   Overcast
11:44 AM 39.2 °F 30.8 °F 37.4 °F 93% 29.40 in 3.0 mi SW 15.0 mph - 0.00 in Rain Light Rain
11:56 AM 39.0 °F 30.3 °F 37.9 °F 96% 29.42 in 9.0 mi SW 16.1 mph - 0.00 in   Overcast
12:52 PM 39.2 °F 30.5 °F 39.2 °F 100% 29.41 in 2.0 mi SW 16.1 mph - 0.00 in Rain Light Rain
12:56 PM 39.0 °F 30.3 °F 39.0 °F 100% 29.43 in 4.0 mi SW 16.1 mph - 0.00 in Rain Light Rain
1:14 PM 39.2 °F 30.5 °F 39.2 °F 100% 29.41 in 1.8 mi WSW 16.1 mph - 0.00 in Rain Light Rain
1:27 PM 39.2 °F 30.8 °F 39.2 °F 100% 29.41 in 3.0 mi WSW 15.0 mph - 0.00 in Rain Light Rain
3:56 PM 39.9 °F 30.0 °F 39.0 °F 97% 29.48 in 10.0 mi West 21.9 mph - N/A   Overcast
4:56 PM 39.9 °F 30.0 °F 39.0 °F 97% 29.50 in 10.0 mi West 21.9 mph 27.6 mph 0.00 in   Overcast
5:56 PM 39.9 °F 29.7 °F 37.9 °F 93% 29.52 in 9.0 mi West 23.0 mph 28.8 mph 0.00 in   Overcast
6:56 PM 39.0 °F 28.8 °F 37.9 °F 96% 29.56 in 10.0 mi West 21.9 mph - 0.00 in Rain Light Rain
7:56 PM 39.0 °F 28.5 °F 37.9 °F 96% 29.59 in 7.0 mi West 23.0 mph 28.8 mph 0.00 in   Overcast
8:04 PM 39.2 °F 29.0 °F 37.4 °F 93% 29.57 in 4.0 mi West 21.9 mph 28.8 mph N/A   Overcast
8:13 PM 39.2 °F 29.6 °F 37.4 °F 93% 29.58 in 3.0 mi West 19.6 mph - 0.00 in Rain Light Rain
8:56 PM 37.9 °F 27.9 °F 37.9 °F 100% 29.62 in 6.0 mi West 19.6 mph - 0.00 in   Overcast
9:56 PM 37.9 °F 28.2 °F 37.0 °F 97% 29.64 in 10.0 mi West 18.4 mph - 0.00 in Rain Light Rain
10:56 PM 39.0 °F 29.3 °F 37.0 °F 93% 29.66 in 10.0 mi West 19.6 mph - 0.00 in   Overcast